Theta_e
309 310 315 316 315 314 319 319 320 321 324 327 327 326 326 326 324 325 327 327 324 322 321 320 318 317 317 319 317 319 323 325 331 332 332 331 331 331 331 331 330 328 329 331 335
309 309 313 315 316 314 314 317 317 318 320 323 325 324 325 324 322 319 323 326 327 323 322 320 318 317 318 319 320 319 321 324 327 327 331 331 330 331 330 331 330 329 330 332 334
308 310 310 314 316 317 314 314 315 318 318 319 320 324 323 322 320 321 322 324 327 324 322 320 318 317 318 318 319 319 319 322 326 326 327 330 330 330 330 330 330 329 330 333 335
309 309 311 310 316 317 316 313 313 316 317 318 317 318 314 317 323 320 322 324 322 323 321 319 317 317 319 319 318 318 317 322 324 324 326 328 328 328 329 328 329 329 329 332 335
308 309 309 310 310 315 317 313 312 313 316 317 317 317 316 316 313 314 318 320 321 321 320 317 316 317 319 319 318 319 318 322 322 323 323 324 326 326 327 327 328 330 329 332 333
304 308 309 308 310 311 316 315 314 313 314 313 314 312 313 317 316 313 311 312 314 313 314 315 315 316 316 317 319 319 320 321 321 322 321 323 323 324 325 326 327 327 330 331 331
303 304 308 308 309 311 316 316 312 315 316 315 314 314 314 314 317 312 311 318 312 313 312 313 314 314 315 318 318 319 320 320 321 321 321 320 320 322 322 324 325 325 326 330 331
306 304 307 308 310 310 315 315 312 314 315 315 315 315 313 314 315 314 313 314 312 312 313 310 313 315 317 317 317 318 318 319 318 321 319 319 318 319 321 322 322 323 325 326 329
307 305 304 309 310 310 311 316 313 314 316 317 317 313 312 310 315 314 313 316 315 313 312 310 314 316 316 317 317 317 318 317 316 318 319 318 318 316 319 320 321 322 323 325 328
307 307 304 308 310 310 311 314 313 315 316 313 311 310 310 308 315 312 312 316 317 316 314 315 316 316 314 316 318 319 317 317 318 316 319 318 317 315 315 316 319 320 322 323 327
306 307 302 307 310 309 311 313 314 311 313 310 310 310 309 309 309 310 310 316 317 315 316 316 316 314 315 314 316 313 316 319 315 313 314 317 316 316 317 316 316 316 320 321 325
305 306 302 305 308 310 309 309 311 310 310 310 311 310 311 309 309 310 313 316 316 314 315 316 316 316 316 315 316 314 315 318 314 315 314 312 312 312 313 313 315 316 316 318 320
303 307 302 304 307 310 308 309 310 310 309 309 310 309 312 310 309 309 315 312 314 314 314 316 314 315 315 314 314 313 313 314 313 315 314 313 311 310 311 313 313 313 314 314 316
303 307 301 304 306 310 310 308 310 310 311 311 311 310 312 312 312 310 314 311 313 313 312 314 312 313 314 314 313 313 312 311 313 310 308 312 308 313 312 312 312 313 314 314 313
303 306 301 306 308 310 310 308 308 309 318 311 311 312 311 311 311 312 313 314 313 312 313 312 311 313 312 312 311 313 312 312 312 312 312 313 310 306 311 312 311 311 312 312 313
304 305 302 306 308 310 310 308 308 310 316 312 311 313 313 312 311 314 314 312 313 313 312 312 312 312 312 311 312 313 314 314 314 313 312 311 309 307 309 310 311 311 312 312 311
305 304 303 306 307 310 309 307 309 313 307 312 313 314 314 314 313 314 313 313 314 312 313 312 313 312 313 313 313 314 313 313 311 310 310 311 309 308 308 309 310 310 312 311 310
306 303 302 305 307 306 307 306 313 310 310 308 313 314 315 313 313 314 312 312 311 310 311 311 311 312 312 313 314 313 311 315 312 316 310 309 307 309 309 310 310 310 311 311 310
305 303 302 304 306 306 306 310 312 311 310 312 314 314 314 313 313 313 313 312 311 308 311 310 313 312 312 312 313 314 312 311 310 305 309 310 310 310 308 308 309 309 309 310 309
303 302 303 304 305 304 302 308 307 307 309 311 314 313 314 314 313 313 313 312 311 309 309 309 312 312 312 312 313 312 309 307 308 307 308 305 309 307 311 310 310 309 310 310 309
303 302 302 304 305 304 307 306 305 306 308 308 308 310 314 315 314 313 313 311 310 310 309 310 311 313 312 313 313 313 310 312 312 311 312 311 308 308 309 310 310 310 311 310 308
302 302 302 304 302 300 305 304 306 308 307 305 306 307 310 314 314 314 313 312 311 309 311 310 312 313 312 311 311 311 311 311 310 312 308 310 308 308 308 309 310 311 311 310 309
300 301 302 302 303 303 302 305 307 307 307 308 306 307 307 309 315 313 312 312 310 309 310 310 311 312 313 312 312 314 311 312 310 310 312 311 309 308 309 308 309 310 311 310 309
301 302 300 302 302 303 302 304 306 306 306 307 307 307 309 309 311 313 313 311 311 310 310 310 312 311 311 311 311 313 313 312 312 309 310 310 309 307 308 308 310 310 311 310 309
300 300 300 300 299 302 303 304 305 307 307 307 307 309 309 310 308 313 312 310 311 311 310 311 308 310 309 310 311 311 312 313 313 312 310 309 309 308 308 309 311 310 311 311 309
300 298 300 298 300 301 303 304 305 305 306 305 307 307 308 310 311 311 311 311 312 311 310 310 311 310 306 308 309 311 310 311 312 312 312 311 310 310 311 311 312 311 312 311 310
301 300 302 301 301 301 301 303 304 305 306 306 306 307 308 309 309 309 309 310 310 311 311 310 308 306 307 309 309 307 307 309 310 311 312 313 312 311 310 310 311 312 312 311 310
Wind_Speed
32 18 4 10 10 16 30 23 20 19 12 20 18 17 14 11 10 18 22 20 11 6 4 1 5 2 4 1 1 2 2 3 4 5 7 17 5 8 10 14 8 6 14 23 22
26 25 8 11 13 14 19 33 31 25 22 15 19 15 16 14 12 12 17 23 17 8 7 1 1 2 3 1 0 1 1 5 7 8 6 12 14 8 4 14 11 10 17 20 21
17 21 25 3 12 15 12 22 23 21 15 17 4 16 13 11 7 9 17 12 19 13 10 5 2 0 2 3 1 1 2 2 10 9 10 10 6 11 4 6 14 16 18 19 23
9 12 20 17 12 14 13 9 18 22 16 17 16 5 7 11 6 10 16 16 18 18 13 7 4 3 4 4 2 3 5 9 5 5 4 6 1 2 5 4 10 16 20 20 22
12 12 17 23 17 15 17 10 9 23 26 23 9 2 7 6 3 2 13 17 16 15 12 7 6 3 4 7 4 1 6 7 5 5 8 4 3 1 7 3 3 10 18 20 20
10 10 12 9 17 9 21 15 17 13 19 28 27 16 13 10 5 3 11 12 9 9 10 11 5 7 4 4 0 5 6 9 4 6 4 2 4 2 4 7 6 7 15 18 19
9 13 10 7 14 13 21 21 17 20 19 18 9 15 12 16 6 8 8 6 10 8 9 12 10 6 8 5 6 7 5 2 4 4 3 1 3 5 6 6 6 8 10 16 18
11 15 14 13 11 12 8 22 21 21 19 17 14 17 7 4 19 14 9 8 9 10 8 10 12 10 5 11 5 4 2 4 4 7 1 1 3 3 7 8 8 11 15 15 17
12 11 11 11 11 10 14 23 24 20 20 21 25 15 6 8 19 14 13 8 9 10 8 11 10 5 6 5 4 3 3 6 2 4 4 4 4 2 3 5 7 11 12 13 15
11 9 9 10 9 7 12 3 28 21 26 21 11 6 9 14 23 18 14 11 9 12 10 6 5 4 4 4 5 6 4 3 4 5 2 5 10 2 4 5 9 11 10 10 14
13 11 8 10 7 7 10 15 19 9 30 10 13 4 12 14 18 20 21 15 10 12 5 7 4 7 9 10 5 2 4 5 8 2 1 8 9 9 13 13 13 13 13 13 12
12 11 8 12 7 6 4 2 7 9 8 10 4 8 16 16 7 14 21 13 12 6 6 4 6 9 8 9 6 3 4 2 4 5 1 6 8 9 11 16 20 20 18 16 13
13 10 7 10 7 8 11 10 7 17 6 7 3 19 10 11 6 21 21 9 8 9 10 8 1 6 6 7 9 6 7 4 5 2 4 5 7 11 10 24 22 23 21 18 17
14 11 7 8 6 10 11 14 10 10 3 8 5 11 11 12 3 19 23 9 5 10 8 6 3 9 8 8 7 6 4 7 8 3 2 1 5 2 5 5 4 9 12 13 14
14 12 9 10 3 14 14 9 9 3 5 14 9 9 22 16 18 11 16 8 8 6 6 4 5 10 8 9 8 3 9 7 4 3 5 5 2 5 6 5 6 9 7 4 11
15 12 11 12 6 6 17 15 13 1 3 4 9 15 15 15 7 17 9 5 8 5 7 4 3 2 0 3 6 8 12 9 4 2 1 9 7 5 4 4 6 11 10 5 7
16 13 13 11 8 19 23 13 2 2 2 4 5 14 16 10 10 14 14 8 6 6 5 5 3 3 1 9 5 5 6 2 2 1 5 4 6 7 4 2 6 8 7 5 6
17 13 14 9 8 14 18 3 3 2 3 1 6 16 7 15 7 15 16 11 10 5 8 5 2 7 4 3 7 8 4 5 7 5 4 3 6 5 6 8 6 5 4 7 7
18 14 12 9 13 12 7 2 1 2 4 4 10 12 5 11 8 13 14 12 11 11 4 5 4 3 7 1 9 5 4 1 5 2 3 5 6 3 6 6 4 6 8 8 9
20 17 9 11 13 11 5 5 3 5 2 1 2 3 5 14 9 11 14 14 10 9 5 5 6 5 1 1 2 2 7 3 2 4 3 4 4 5 5 7 7 7 11 11 11
18 7 6 8 15 4 1 4 1 3 4 2 3 2 3 10 7 11 14 11 11 11 2 2 5 5 5 6 9 4 4 4 4 3 4 2 5 4 8 8 9 12 13 14 13
9 3 12 13 3 2 1 2 5 3 2 3 3 2 3 8 10 12 11 3 21 17 6 1 5 5 6 3 4 6 5 4 4 4 3 3 5 1 7 6 5 9 11 11 12
7 5 10 9 2 3 2 2 1 3 1 2 3 1 2 4 6 8 9 13 22 15 8 6 3 5 5 3 2 3 5 3 3 2 5 5 4 3 5 4 7 7 13 15 14
6 3 1 4 2 2 5 3 3 4 2 2 3 4 3 3 4 8 10 4 19 19 4 8 5 5 7 5 9 6 9 9 7 3 4 7 2 5 7 7 9 12 16 18 17
4 2 4 4 4 4 3 7 8 5 3 4 2 6 5 3 2 5 8 3 4 12 8 3 3 1 5 5 5 7 14 18 16 13 7 7 10 8 9 9 14 14 16 18 20
6 4 4 2 11 5 4 5 6 3 7 4 0 5 4 3 4 4 6 5 4 9 8 2 1 3 4 4 5 4 9 16 20 17 19 13 12 4 3 11 16 16 17 22 24
7 8 5 9 6 6 4 3 6 7 4 2 8 3 5 2 8 3 7 1 3 10 11 7 4 3 2 1 2 8 8 10 9 17 13 16 14 5 8 10 14 19 22 24 26
Wind_Direction
263 316 239 227 250 227 236 234 231 256 195 173 185 180 174 191 208 211 239 231 237 266 276 276 47 335 79 338 107 145 296 260 284 134 115 145 109 107 83 120 102 78 76 148 160
261 298 353 208 226 227 230 241 246 260 262 182 173 167 180 188 189 205 228 231 224 256 259 139 163 97 167 203 319 245 235 17 354 22 113 160 133 132 132 131 122 112 114 152 157
262 268 293 30 203 228 228 231 243 234 240 270 168 170 175 182 177 232 214 219 218 231 244 216 207 311 169 184 170 104 7 102 38 39 21 168 123 149 199 158 169 157 148 164 162
283 259 267 288 174 210 220 221 234 224 256 239 262 253 114 156 183 201 204 205 207 209 219 199 176 219 185 169 164 148 66 33 55 52 18 104 152 114 236 90 74 171 163 173 172
300 282 258 263 292 198 211 200 206 238 226 241 236 294 311 326 300 234 192 196 202 204 204 183 193 205 227 129 157 231 111 84 95 79 56 74 25 91 222 193 137 114 164 178 180
287 285 273 287 276 287 198 194 183 175 220 252 251 286 271 272 269 191 149 155 155 171 193 173 190 180 94 96 261 62 122 112 112 95 68 9 120 109 235 215 219 193 168 184 189
311 286 267 269 285 258 191 189 182 182 187 201 210 213 214 238 261 247 209 160 146 138 166 184 171 143 135 103 110 135 113 133 157 134 92 80 264 204 200 177 181 215 205 200 199
292 328 236 255 262 247 194 191 173 176 182 190 183 177 218 251 231 238 198 196 178 169 175 156 143 133 99 123 102 142 320 161 128 124 51 112 278 133 184 176 212 224 214 216 211
282 320 233 250 265 253 257 188 183 183 181 177 169 143 167 210 206 221 180 187 160 151 155 144 127 127 130 158 108 192 186 196 168 226 111 201 269 112 160 183 232 237 227 222 206
275 280 238 247 271 243 250 231 179 174 162 146 146 148 184 198 194 199 172 184 141 148 125 143 145 160 182 181 174 169 207 103 152 181 210 199 257 202 207 207 229 241 239 227 204
261 267 270 230 240 243 250 160 159 125 159 155 180 63 147 145 176 179 176 172 155 158 156 182 171 194 183 195 239 35 266 204 92 101 135 225 254 243 223 215 234 239 235 229 214
248 250 273 215 214 213 226 90 88 142 130 144 89 183 143 141 149 173 166 165 169 179 146 104 223 206 198 194 216 221 257 181 85 100 163 283 274 263 246 239 231 232 235 228 215
238 235 254 210 228 196 184 187 139 123 113 209 216 184 142 165 170 181 176 183 188 190 184 171 41 180 145 129 152 208 209 212 98 159 223 302 266 236 231 228 232 230 230 234 226
226 223 225 183 218 202 172 197 150 125 117 157 212 189 164 147 194 184 180 169 198 195 168 256 142 136 140 163 177 181 173 83 110 103 220 308 280 306 146 172 221 236 214 224 230
216 210 203 178 200 190 177 165 196 158 194 151 161 172 170 170 147 187 178 203 198 167 137 192 161 160 174 184 178 121 115 130 129 174 57 201 270 251 125 206 190 180 148 188 209
203 196 181 185 182 199 166 156 153 150 191 160 145 166 155 180 188 144 149 147 164 100 43 71 337 92 305 73 117 133 100 82 84 99 297 202 174 261 189 201 107 126 143 193 227
189 182 173 184 182 165 156 126 112 248 360 142 165 161 161 167 145 164 163 165 152 132 157 112 78 38 108 79 118 127 121 75 17 24 221 333 193 252 175 114 102 108 104 196 226
178 163 166 191 166 187 153 84 215 148 168 225 160 152 171 154 141 176 166 177 222 200 137 148 206 175 204 179 173 181 158 161 188 187 188 26 228 249 104 102 113 148 170 203 185
160 149 152 164 150 141 133 199 27 60 120 174 129 160 139 177 133 172 184 191 199 204 144 136 82 41 144 29 142 192 205 7 105 11 66 199 249 245 141 136 170 192 188 183 183
146 135 117 158 162 149 75 333 1 332 24 338 118 187 165 175 145 173 179 198 183 214 45 119 113 165 29 287 187 166 144 73 326 137 227 250 221 226 190 187 175 191 199 185 189
131 95 133 133 153 97 133 188 171 234 330 46 101 111 174 173 155 178 183 167 169 195 192 126 112 147 137 221 171 189 191 229 133 134 177 174 253 332 144 155 182 197 195 191 186
113 85 149 142 69 72 153 197 156 132 81 109 91 118 39 187 171 179 188 167 171 159 179 143 105 157 188 40 4 244 190 202 144 206 230 133 268 120 112 132 155 172 183 192 194
91 86 154 171 154 180 331 270 209 132 168 187 128 257 135 346 186 179 178 207 153 166 170 187 154 114 167 330 116 222 232 251 263 98 206 148 239 114 125 179 196 195 186 191 198
109 112 173 197 286 175 176 181 154 160 175 215 120 138 183 68 313 196 149 126 167 179 223 165 179 156 178 192 143 187 210 216 229 153 164 211 200 192 211 222 204 211 204 204 199
129 137 168 182 243 299 191 169 161 172 194 198 191 220 144 132 277 177 147 90 90 174 200 199 178 170 64 96 178 172 192 207 220 222 215 172 217 224 199 204 200 211 204 200 206
132 134 137 203 158 187 213 223 204 188 175 205 120 191 148 138 159 228 146 147 159 189 194 214 264 91 17 19 36 242 218 213 220 226 242 257 261 257 283 225 181 187 195 205 211
174 157 158 175 174 184 217 197 219 201 196 127 188 148 179 148 127 143 316 291 188 170 186 168 130 102 194 62 28 278 211 226 234 226 222 234 235 198 232 247 221 196 207 213 219